This is the latest recevied weather packets stored in our database for station/object K5NOC-12. If no packets are shown the sender has not sent any weather packets the latest 10 day(s).
| Time | Temp. | Humidity | Pressure | Rain* | Wind** | Luminosity | Snow |
|---|---|---|---|---|---|---|---|
| 1777747301 | 20.56° C | 22% | 1022.5 hPa | 0 mm | - | - | - |
| 1777746400 | 20.56° C | 21% | 1022.7 hPa | 0 mm | - | - | - |
| 1777745500 | 21.11° C | 22% | 1022.9 hPa | 0 mm | - | - | - |
| 1777744600 | 21.11° C | 21% | 1023 hPa | 0 mm | - | - | - |
| 1777743700 | 20.56° C | 20% | 1023.2 hPa | 0 mm | - | - | - |
| 1777742800 | 20.56° C | 30% | 1023.3 hPa | 0 mm | - | - | - |
| 1777741900 | 19.44° C | 34% | 1023.4 hPa | 0 mm | - | - | - |
| 1777741000 | 18.33° C | 36% | 1023.5 hPa | 0 mm | - | - | - |
| 1777740100 | 18.33° C | 37% | 1023.7 hPa | 0 mm | - | - | - |
| 1777739200 | 17.78° C | 42% | 1023.8 hPa | 0 mm | - | - | - |
| 1777738299 | 16.67° C | 44% | 1023.7 hPa | 0 mm | - | - | - |
| 1777737399 | 16.11° C | 47% | 1023.6 hPa | 0 mm | - | - | - |
| 1777736499 | 15° C | 50% | 1023.6 hPa | 0 mm | - | - | - |
| 1777735599 | 14.44° C | 52% | 1023.6 hPa | 0 mm | - | - | - |
| 1777734699 | 13.89° C | 55% | 1023.6 hPa | 0 mm | - | - | - |
| 1777733799 | 12.78° C | 61% | 1023.6 hPa | 0 mm | - | - | - |
| 1777732899 | 11.67° C | 65% | 1023.6 hPa | 0 mm | - | - | - |
| 1777731999 | 10.56° C | 66% | 1023.6 hPa | 0 mm | - | - | - |
| 1777731099 | 10° C | 69% | 1023.7 hPa | 0 mm | - | - | - |
| 1777730199 | 9.44° C | 70% | 1023.4 hPa | 0 mm | - | - | - |
| 1777729298 | 8.89° C | 71% | 1023.3 hPa | 0 mm | - | - | - |
| 1777728398 | 7.78° C | 74% | 1023.3 hPa | 0 mm | - | - | - |
| 1777727498 | 6.67° C | 77% | 1023.3 hPa | 0 mm | - | - | - |
| 1777726598 | 6.11° C | 78% | 1023.3 hPa | 0 mm | - | - | - |
| 1777725698 | 6.11° C | 79% | 1022.9 hPa | 0 mm | - | - | - |
* Rain latest hour (hover to see other rain measurements)
** Current wind speed in m/s (hover to see current wind gust speed)